Farmville, Virginia, United States (23901)
Lat: 37.30N, Lon: 78.39W
Wx Zone: VAZ060
Local Info
Past Weather Observations for Yesterday

NOTE: This archive is for the closest National Weather Service station to Farmville. Information may differ from the station used for current weather conditions.

Click here for Long-term Archive

Time Weather Temperature Dewpoint Humidity Pressure Winds Precip Visibility
23:55
Clear
68°F / 20°C 64°F / 18°C 88% 29.95 in
(1014 mb)
Calm - 10SM
23:35
Partly Cloudy
68°F / 20°C 63°F / 17°C 83% 29.95 in
(1014 mb)
SSW 4.6 mph
(SSW 7 kph)
- 10SM
23:15
Partly Cloudy
68°F / 20°C 64°F / 18°C 88% 29.95 in
(1014 mb)
Calm - 10SM
22:55
Partly Cloudy
68°F / 20°C 64°F / 18°C 88% 29.95 in
(1014 mb)
Calm - 10SM
22:35
Mostly Cloudy
70°F / 21°C 64°F / 18°C 83% 29.95 in
(1014 mb)
Calm - 10SM
22:15
Mostly Cloudy
68°F / 20°C 66°F / 19°C 94% 29.95 in
(1014 mb)
Calm - 10SM
21:55
Mostly Cloudy
70°F / 21°C 63°F / 17°C 78% 29.95 in
(1014 mb)
Calm - 10SM
21:35
Mostly Cloudy
70°F / 21°C 63°F / 17°C 78% 29.95 in
(1014 mb)
Calm - 10SM
21:15
Partly Cloudy
73°F / 23°C 61°F / 16°C 65% 29.95 in
(1014 mb)
Calm - 10SM
20:55
Clear
72°F / 22°C 61°F / 16°C 69% 29.95 in
(1014 mb)
Calm - 10SM
20:35
Clear
75°F / 24°C 61°F / 16°C 61% 29.95 in
(1014 mb)
Calm - 10SM
20:15
Clear
75°F / 24°C 61°F / 16°C 61% 29.92 in
(1013 mb)
Calm - 10SM
19:55
Clear
73°F / 23°C 61°F / 16°C 65% 29.92 in
(1013 mb)
Calm - 10SM
19:35
Clear
77°F / 25°C 61°F / 16°C 57% 29.92 in
(1013 mb)
Calm - 10SM
19:15
Clear
81°F / 27°C 59°F / 15°C 48% 29.92 in
(1013 mb)
Calm - 10SM
18:35
Clear
84°F / 29°C 55°F / 13°C 37% 29.92 in
(1013 mb)
Calm - 10SM
18:15
Clear
86°F / 30°C 52°F / 11°C 31% 29.89 in
(1012 mb)
Calm - 10SM
17:55
Clear
88°F / 31°C 54°F / 12°C 31% 29.89 in
(1012 mb)
SSW 4.6 mph
(SSW 7 kph)
- 10SM
17:35
Clear
88°F / 31°C 54°F / 12°C 31% 29.89 in
(1012 mb)
SSW 5.8 mph
(SSW 9 kph)
- 10SM
17:15
Clear
88°F / 31°C 54°F / 12°C 31% 29.89 in
(1012 mb)
Calm - 10SM
16:55
Clear
90°F / 32°C 52°F / 11°C 27% 29.89 in
(1012 mb)
W 5.8 mph
(W 9 kph)
- 10SM
16:35
Clear
90°F / 32°C 54°F / 12°C 29% 29.89 in
(1012 mb)
SSW 4.6 mph
(SSW 7 kph)
- 10SM
16:15
Clear
90°F / 32°C 55°F / 13°C 31% 29.92 in
(1013 mb)
SW 5.8 mph
(SW 9 kph)
- 10SM
15:55
Clear
88°F / 31°C 55°F / 13°C 33% 29.92 in
(1013 mb)
NW 5.8 mph
(NW 9 kph)
- 10SM
15:35
Clear
88°F / 31°C 55°F / 13°C 33% 29.92 in
(1013 mb)
N 4.6 mph
(N 7 kph)
- 10SM
15:15
Clear
90°F / 32°C 54°F / 12°C 29% 29.92 in
(1013 mb)
NW 5.8 mph
(NW 9 kph)
- 10SM
14:55
Partly Cloudy
90°F / 32°C 54°F / 12°C 29% 29.92 in
(1013 mb)
SSW 6.9 mph
(SSW 11 kph)
- 10SM
14:35
Mostly Cloudy
90°F / 32°C 54°F / 12°C 29% 29.92 in
(1013 mb)
SW 8.1 mph
(SW 13 kph)
- 10SM
14:15
Partly Cloudy
90°F / 32°C 57°F / 14°C 33% 29.95 in
(1014 mb)
NNW 4.6 mph
(NNW 7 kph)
- 10SM
13:55
Partly Cloudy
90°F / 32°C 57°F / 14°C 33% 29.95 in
(1014 mb)
SSW 6.9 mph
(SSW 11 kph)
- 10SM
13:35
Partly Cloudy
88°F / 31°C 57°F / 14°C 35% 29.95 in
(1014 mb)
Calm - 10SM
13:15
Clear
88°F / 31°C 55°F / 13°C 33% 29.98 in
(1015 mb)
SSW 3.5 mph
(SSW 6 kph)
- 10SM
12:55
Clear
88°F / 31°C 55°F / 13°C 33% 29.98 in
(1015 mb)
NE 5.8 mph
(NE 9 kph)
- 10SM
12:35
Clear
88°F / 31°C 55°F / 13°C 33% 29.98 in
(1015 mb)
ENE 4.6 mph
(ENE 7 kph)
- 7SM
12:15
Clear
88°F / 31°C 55°F / 13°C 33% 29.98 in
(1015 mb)
Calm - 10SM
11:55
Clear
86°F / 30°C 55°F / 13°C 35% 29.98 in
(1015 mb)
NE 9.2 mph
(NE 15 kph)
- 10SM
11:35
Clear
86°F / 30°C 55°F / 13°C 35% 29.98 in
(1015 mb)
N 5.8 mph
(N 9 kph)
- 10SM
11:15
Clear
86°F / 30°C 55°F / 13°C 35% 29.98 in
(1015 mb)
NNE 10.4 mph
(NNE 17 kph)
- 10SM
10:55
Clear
86°F / 30°C 55°F / 13°C 35% 29.98 in
(1015 mb)
NNW 8.1 mph
(NNW 13 kph)
- 10SM
10:35
Clear
84°F / 29°C 55°F / 13°C 37% 29.98 in
(1015 mb)
NE 10.4 mph
(NE 17 kph)
- 10SM
10:15
Clear
84°F / 29°C 57°F / 14°C 40% 30.01 in
(1016 mb)
NNE 9.2 mph
(NNE 15 kph)
- 10SM
09:55
Clear
84°F / 29°C 57°F / 14°C 40% 29.98 in
(1015 mb)
NE 11.5 mph
(NE 19 kph)
- 10SM
09:35
Clear
84°F / 29°C 59°F / 15°C 43% 30.01 in
(1016 mb)
NNE 5.8 mph
(NNE 9 kph)
- 10SM
09:15
Clear
82°F / 28°C 59°F / 15°C 45% 29.98 in
(1015 mb)
NNE 5.8 mph
(NNE 9 kph)
- 10SM
08:55
Clear
82°F / 28°C 59°F / 15°C 45% 29.98 in
(1015 mb)
N 5.8 mph
(N 9 kph)
- 10SM
08:35
Clear
81°F / 27°C 61°F / 16°C 51% 30.01 in
(1016 mb)
N 4.6 mph
(N 7 kph)
- 10SM
08:15
Clear
79°F / 26°C 61°F / 16°C 54% 29.98 in
(1015 mb)
N 3.5 mph
(N 6 kph)
- 10SM
07:55
Clear
79°F / 26°C 61°F / 16°C 54% 29.98 in
(1015 mb)
N 3.5 mph
(N 6 kph)
- 10SM
07:35
Clear
77°F / 25°C 63°F / 17°C 61% 29.98 in
(1015 mb)
NNW 4.6 mph
(NNW 7 kph)
- 10SM
07:15
Clear
75°F / 24°C 63°F / 17°C 65% 29.98 in
(1015 mb)
NNW 4.6 mph
(NNW 7 kph)
- 10SM
06:55
Clear
73°F / 23°C 63°F / 17°C 69% 29.98 in
(1015 mb)
NNW 3.5 mph
(NNW 6 kph)
- 10SM
06:35
Clear
72°F / 22°C 70°F / 21°C 94% 29.98 in
(1015 mb)
Calm - 10SM
06:15
Clear
68°F / 20°C 68°F / 20°C 100% 29.98 in
(1015 mb)
Calm - 10SM
05:55
Clear
68°F / 20°C 68°F / 20°C 100% 29.98 in
(1015 mb)
Calm - 10SM
05:35
Partly Cloudy
68°F / 20°C 68°F / 20°C 100% 29.98 in
(1015 mb)
Calm - 10SM
05:15
Mostly Cloudy
68°F / 20°C 68°F / 20°C 100% 29.98 in
(1015 mb)
Calm - 10SM
04:55
Mostly Cloudy
68°F / 20°C 68°F / 20°C 100% 29.95 in
(1014 mb)
Calm - 10SM
04:35
Overcast
70°F / 21°C 68°F / 20°C 94% 29.95 in
(1014 mb)
Calm - 10SM
04:15
Mostly Cloudy
70°F / 21°C 70°F / 21°C 100% 29.95 in
(1014 mb)
Calm - 10SM
03:55
Partly Cloudy
72°F / 22°C 70°F / 21°C 94% 29.95 in
(1014 mb)
Calm - 10SM
03:35
Mostly Cloudy
72°F / 22°C 72°F / 22°C 100% 29.95 in
(1014 mb)
NNE 3.5 mph
(NNE 6 kph)
- 10SM
03:15
Overcast
72°F / 22°C 72°F / 22°C 100% 29.95 in
(1014 mb)
Calm - 10SM
02:55
Mostly Cloudy
72°F / 22°C 72°F / 22°C 100% 29.95 in
(1014 mb)
Calm - 10SM
02:35
Partly Cloudy
73°F / 23°C 72°F / 22°C 94% 29.95 in
(1014 mb)
Calm - 10SM
02:15
Mostly Cloudy
73°F / 23°C 73°F / 23°C 100% 29.95 in
(1014 mb)
Calm - 10SM
01:55
Overcast
73°F / 23°C 73°F / 23°C 100% 29.95 in
(1014 mb)
Calm - 10SM
01:35
Overcast
73°F / 23°C 73°F / 23°C 100% 29.95 in
(1014 mb)
Calm - 10SM
01:15
Mostly Cloudy
73°F / 23°C 73°F / 23°C 100% 29.95 in
(1014 mb)
Calm - 10SM
00:55
Partly Cloudy
72°F / 22°C 72°F / 22°C 100% 29.95 in
(1014 mb)
Calm - 7SM
00:35
Clear
73°F / 23°C 73°F / 23°C 100% 29.95 in
(1014 mb)
Calm - 10SM
00:15
Clear
73°F / 23°C 73°F / 23°C 100% 29.95 in
(1014 mb)
Calm - 10SM
Time Weather Temperature Dewpoint Humidity Pressure Winds Precip Visibility


Weather for websites

WeatherForYou.com, LLC is not responsible for any damages or problems caused by this service. Current weather conditions are obtained from the closest station including government and personal stations which may have varying degrees of accuracy. Weather forecasts are derived from the NOAA NDFD. Like all things, this site belongs to Jesus Christ... He just trusts us to maintain it. If you have any questions or comments email webmaster@weatherforyou.com

Copyright © 2015, WeatherForYou.com LLC. All rights reserved.